TimeMST,TemperatureF,Dew PointF,Humidity,Sea Level PressureIn,VisibilityMPH,Wind Direction,Wind SpeedMPH,Gust SpeedMPH,PrecipitationIn,Events,Conditions,WindDirDegrees,DateUTC
12:53 AM,18.0,14.0,84,30.53,10.0,Calm,Calm,-,N/A,,Overcast,0,2013-01-15 07:53:00
1:53 AM,18.0,14.0,84,30.53,10.0,ESE,4.6,-,N/A,,Overcast,120,2013-01-15 08:53:00
2:06 AM,17.6,14.0,86,30.37,10.0,East,3.5,-,N/A,,Overcast,100,2013-01-15 09:06:00
2:53 AM,19.0,14.0,81,30.55,10.0,ESE,3.5,-,N/A,,Overcast,110,2013-01-15 09:53:00
3:53 AM,19.0,15.1,85,30.55,10.0,SE,4.6,-,N/A,,Overcast,140,2013-01-15 10:53:00
4:53 AM,19.0,15.1,85,30.55,10.0,East,4.6,-,N/A,,Overcast,90,2013-01-15 11:53:00
5:53 AM,19.9,16.0,85,30.54,10.0,ESE,4.6,-,N/A,,Overcast,120,2013-01-15 12:53:00
6:37 AM,19.4,15.8,86,30.39,10.0,East,3.5,-,N/A,,Overcast,100,2013-01-15 13:37:00
6:53 AM,19.9,16.0,85,30.56,10.0,East,3.5,-,N/A,,Overcast,90,2013-01-15 13:53:00
7:53 AM,19.0,16.0,88,30.57,7.0,Calm,Calm,-,N/A,,Overcast,0,2013-01-15 14:53:00
8:53 AM,19.0,16.0,88,30.60,6.0,Calm,Calm,-,N/A,,Overcast,0,2013-01-15 15:53:00
9:53 AM,19.9,17.1,89,30.60,6.0,Calm,Calm,-,N/A,,Overcast,0,2013-01-15 16:53:00
10:53 AM,19.9,17.1,89,30.61,10.0,Calm,Calm,-,N/A,,Overcast,0,2013-01-15 17:53:00
11:53 AM,21.0,18.0,88,30.61,10.0,Calm,Calm,-,N/A,,Overcast,0,2013-01-15 18:53:00
12:53 PM,21.9,19.0,89,30.61,10.0,Calm,Calm,-,N/A,,Overcast,0,2013-01-15 19:53:00
1:53 PM,23.0,19.0,85,30.60,10.0,Calm,Calm,-,N/A,,Overcast,0,2013-01-15 20:53:00
2:53 PM,24.1,19.9,84,30.60,10.0,Calm,Calm,-,N/A,,Overcast,0,2013-01-15 21:53:00
3:53 PM,26.1,19.9,78,30.61,10.0,Calm,Calm,-,N/A,,Overcast,0,2013-01-15 22:53:00
4:53 PM,26.1,19.9,78,30.60,10.0,Calm,Calm,-,N/A,,Scattered Clouds,0,2013-01-15 23:53:00
5:53 PM,19.0,16.0,88,30.62,10.0,Calm,Calm,-,N/A,,Clear,0,2013-01-16 00:53:00
6:53 PM,17.1,15.1,92,30.63,9.0,Calm,Calm,-,N/A,,Clear,0,2013-01-16 01:53:00
7:53 PM,16.0,14.0,92,30.64,5.0,Calm,Calm,-,N/A,,Clear,0,2013-01-16 02:53:00
8:53 PM,16.0,12.9,88,30.64,9.0,Calm,Calm,-,N/A,,Clear,0,2013-01-16 03:53:00
9:53 PM,14.0,10.9,88,30.65,10.0,Calm,Calm,-,N/A,,Clear,0,2013-01-16 04:53:00
10:08 PM,10.4,8.6,92,30.49,1.2,WSW,5.8,-,N/A,,Partly Cloudy,240,2013-01-16 05:08:00
10:13 PM,10.4,8.6,92,30.49,0.2,WSW,5.8,-,N/A,Fog,Light Freezing Fog,250,2013-01-16 05:13:00
10:37 PM,12.2,10.4,92,30.48,1.0,Calm,Calm,-,N/A,,Mist,0,2013-01-16 05:37:00
10:39 PM,12.2,10.4,92,30.48,2.0,Calm,Calm,-,N/A,,Mostly Cloudy,0,2013-01-16 05:39:00
10:44 PM,12.2,10.4,92,30.48,5.0,ENE,3.5,-,N/A,,Scattered Clouds,60,2013-01-16 05:44:00
10:53 PM,10.9,10.0,96,30.65,7.0,East,4.6,-,N/A,,Partly Cloudy,90,2013-01-16 05:53:00
11:53 PM,9.0,7.0,92,30.66,5.0,Calm,Calm,-,N/A,,Clear,0,2013-01-16 06:53:00